[[{"header":{"parameterUnit":"m.s-1","parameterCategory":1,"la1":30.2991,"la2":30.254,"lo1":-89.0895,"lo2":-89.0444,"dy":0.0017,"dx":0.0017,"nx":28,"ny":28,"refTime":"2023-09-08T21:00:00:Z","depth":0,"parameterNumber":2,"parameterNumberName":"U-component_of_WINDS"},"data":[0,0,0,0,0,0,0,0,0,0,0,0,0,0,0,0,0,0,0,0,0,0,0,0,0,0,0,0,0,0,0,0,0,0,0,0,0,0,0,0,0,0,0,0,0,0,0,0,0,0,0,0,0,0,0,0,0,0,0.7782,0.7783,0,0.7896,0.7897,0.7898,0.7929,0.7929,0.7928,0.7927,0.8049,0.8053,0.8057,0,0,0,0,0,0,0,0,0,0,0,0,0,0.7595,0.7598,0.7781,0.7783,0.7784,0.7896,0.7897,0.7899,0.7929,0.7929,0.7928,0.7927,0.8048,0.8052,0.8057,0,0,0,0,0,0,0,0,0,0,0,0,0,0.769,0.7599,0.7781,0.7813,0.7817,0.7895,0.7897,0.7899,0.793,0.7929,0.7928,0.7927,0.8046,0.8052,0.8058,0.8114,0,0,0.8075,0.8078,0,0,0,0,0,0,0,0,0.7684,0.7696,0.7807,0.7811,0.7815,0.7897,0.7876,0.7971,0.793,0.7887,0.7927,0.7926,0.8,0.8009,0.8033,0.812,0.8125,0.8076,0.8079,0.8082,0.8084,0,0,0,0,0,0,0,0.7678,0.7692,0.7827,0.7808,0.7814,0.7823,0.7836,0.7894,0.7948,0.7891,0.7893,0.7906,0.8002,0.8027,0.8036,0.8127,0.8076,0.8081,0.8085,0.8087,0.8267,0.8268,0,0,0,0,0,0,0.7665,0.7686,0.7823,0.783,0.7746,0.7827,0.7841,0.7872,0.7947,0.7958,0.7907,0.7907,0.8018,0.8029,0.8041,0.8112,0.8082,0.8087,0.8091,0.8266,0.8267,0.8269,0,0,0,0,0,0,0.7661,0.7677,0.7819,0.7759,0.7778,0.7832,0.7866,0.7875,0.79,0.7959,0.797,0.7923,0.8018,0.8032,0.8096,0.8117,0.809,0.8095,0.8264,0.8266,0.8268,0.8255,0,0,0,0,0,0,0.7655,0.7675,0.7696,0.7759,0.7781,0.787,0.7868,0.7878,0.791,0.7911,0.7977,0.7987,0.8018,0.8087,0.8101,0.8124,0.81,0.8263,0.8265,0.8267,0.8254,0.8256,0.8258,0,0,0,0,0,0.7648,0.7688,0.7697,0.7713,0.7807,0.7871,0.7884,0.7917,0.7911,0.7933,0.7972,0.7985,0.8112,0.8093,0.811,0.8135,0.8261,0.8264,0.8267,0.8253,0.8256,0.8258,0,0,0,0,0,0,0.7627,0.7697,0.7707,0.7768,0.7813,0.7876,0.7905,0.7919,0.7968,0.7967,0.8009,0.8023,0.8084,0.8116,0.8093,0.8194,0.8187,0.8194,0.817,0.8174,0.8176,0.8167,0.8105,0,0,0,0,0,0.763,0.7674,0.7733,0.7782,0.7804,0.785,0.7879,0.7901,0.795,0.797,0.8013,0.8061,0.8112,0.8145,0.8195,0.8259,0.8274,0.8285,0.8287,0.8288,0.8294,0.8331,0.8336,0.8278,0.8278,0.8278,0,0,0.7635,0.7679,0.7704,0.7778,0.7816,0.7863,0.7866,0.7915,0.7951,0.7978,0.804,0.8073,0.813,0.8194,0.8224,0.8222,0.8313,0.8292,0.8293,0.8297,0.8334,0.834,0.8344,0.828,0.828,0.828,0,0,0.7669,0.7706,0.775,0.7788,0.7844,0.7875,0.7886,0.7947,0.7969,0.8032,0.8054,0.8098,0.8184,0.8224,0.8256,0.8306,0.832,0.8321,0.8333,0.8369,0.8373,0.8378,0.8396,0.8402,0.8326,0.8326,0.8326,0,0.7669,0.7738,0.7772,0.782,0.7852,0.7878,0.7925,0.796,0.803,0.8053,0.805,0.816,0.82,0.8274,0.8286,0.8311,0.8325,0.8314,0.837,0.8374,0.8379,0.8397,0.8404,0.8326,0.8326,0.8326,0.8326,0,0.7736,0.7784,0.7813,0.7879,0.7915,0.7962,0.8005,0.8038,0.8057,0.8089,0.8153,0.8202,0.8263,0.8283,0.8302,0.836,0.8357,0.8361,0.8355,0.8384,0.8401,0.8408,0.8325,0.8326,0.8326,0.8326,0,0,0.7758,0.7843,0.7853,0.7884,0.7948,0.7987,0.8036,0.8094,0.8122,0.817,0.8213,0.8287,0.8291,0.8327,0.8352,0.8383,0.8421,0.8384,0.8386,0.8389,0.8488,0.8484,0.8491,0.8431,0.8432,0.8433,0.8483,0,0.78,0.7887,0.7919,0.7991,0.8036,0.8062,0.8105,0.8151,0.8182,0.8227,0.8263,0.8314,0.8316,0.8337,0.837,0.8409,0.8441,0.8406,0.8472,0.8474,0.8457,0.85,0.8496,0.8541,0.849,0.8491,0.8492,0,0.786,0.7908,0.7983,0.8043,0.8063,0.8101,0.8158,0.82,0.8252,0.8273,0.8314,0.8336,0.8391,0.8382,0.8458,0.8433,0.8463,0.8486,0.8489,0.8496,0.8485,0.8509,0.8556,0.8562,0.8503,0.8503,0.8502,0,0.7869,0.7952,0.8009,0.8034,0.8105,0.8131,0.8162,0.8214,0.8247,0.8298,0.832,0.8376,0.8407,0.8451,0.8489,0.8479,0.8562,0.8556,0.8582,0.8581,0.8598,0.8596,0.865,0.8617,0.8617,0.8617,0.8617,0,0.7912,0.7957,0.8013,0.8048,0.81,0.8138,0.819,0.8223,0.8269,0.8312,0.8338,0.8378,0.8426,0.8473,0.8503,0.8562,0.8576,0.8596,0.8603,0.8593,0.8591,0.8613,0.8611,0.8619,0.8618,0.8618,0.8618,0,0.7931,0.797,0.8033,0.8095,0.8112,0.8148,0.8202,0.8237,0.827,0.8324,0.8339,0.8392,0.8448,0.849,0.8564,0.8585,0.8647,0.8655,0.8629,0.8633,0.8656,0.8653,0.8726,0.8738,0.8697,0.8697,0.8697,0,0.7955,0.7991,0.8056,0.8086,0.8117,0.8165,0.8199,0.8238,0.8273,0.8336,0.8364,0.8422,0.8471,0.856,0.8606,0.8663,0.8672,0.8694,0.8681,0.867,0.8673,0.867,0.8674,0.8695,0.8696,0.8696,0.8696,0,0.7995,0.8013,0.8059,0.8114,0.8153,0.8198,0.8244,0.8267,0.8315,0.8353,0.841,0.8448,0.8523,0.858,0.8642,0.8676,0.8695,0.87,0.8709,0.8699,0.8682,0.8691,0.8633,0.8698,0.8698,0.8697,0.8697,0.8697,0.8017,0.805,0.8102,0.8154,0.8192,0.8234,0.827,0.8308,0.8356,0.8419,0.844,0.8499,0.8553,0.8637,0.8672,0.872,0.8721,0.8734,0.8737,0.8739,0.8739,0.8674,0.8732,0.8732,0.8732,0.8732,0.8732,0,0.8058,0.8093,0.814,0.8202,0.8244,0.8256,0.8308,0.8342,0.8393,0.8441,0.8488,0.8555,0.8611,0.8661,0.872,0.8749,0.8759,0.8764,0.8762,0.877,0.8735,0.8721,0.8755,0.8755,0.8755,0.8754,0.8754,0.8754,0.8084,0.8141,0.8165,0.8241,0.8276,0.8333,0.8362,0.8402,0.844,0.8512,0.8559,0.8591,0.864,0.8703,0.8756,0.877,0.879,0.8792,0.8808,0.8775,0.8772,0.8769,0.8756,0.8797,0.8797,0.8839,0.8839,0.8839]},{"header":{"parameterUnit":"m.s-1","parameterCategory":1,"la1":30.2991,"la2":30.254,"lo1":-89.0895,"lo2":-89.0444,"dy":0.0017,"dx":0.0017,"nx":28,"ny":28,"refTime":"2023-09-08T21:00:00:Z","depth":0,"parameterNumber":3,"parameterNumberName":"V-component_of_WINDS"},"data":[0,0,0,0,0,0,0,0,0,0,0,0,0,0,0,0,0,0,0,0,0,0,0,0,0,0,0,0,0,0,0,0,0,0,0,0,0,0,0,0,0,0,0,0,0,0,0,0,0,0,0,0,0,0,0,0,0,0,0.1364,0.1365,0,0.1401,0.1401,0.1402,0.1314,0.1311,0.1309,0.1306,0.1346,0.135,0.1353,0,0,0,0,0,0,0,0,0,0,0,0,0,0.1219,0.1222,0.1364,0.1365,0.1365,0.1401,0.1401,0.1402,0.1315,0.1311,0.1308,0.1305,0.1345,0.1349,0.1354,0,0,0,0,0,0,0,0,0,0,0,0,0,0.1272,0.1223,0.1364,0.1326,0.1323,0.1401,0.1401,0.1402,0.1315,0.1311,0.1307,0.1303,0.1344,0.1349,0.1354,0.1472,0,0,0.1371,0.1374,0,0,0,0,0,0,0,0,0.1269,0.1277,0.1331,0.1329,0.1325,0.1349,0.1365,0.1426,0.1316,0.1318,0.1306,0.1301,0.1351,0.1355,0.1371,0.1474,0.1476,0.1372,0.1375,0.1377,0.1379,0,0,0,0,0,0,0,0.1265,0.1275,0.1379,0.1332,0.1328,0.1307,0.131,0.1376,0.1358,0.1318,0.1312,0.1317,0.1348,0.1366,0.1372,0.1476,0.1372,0.1376,0.138,0.1382,0.1672,0.1676,0,0,0,0,0,0,0.1266,0.1273,0.1378,0.138,0.1286,0.1313,0.1316,0.1345,0.1357,0.1354,0.132,0.1313,0.1359,0.1365,0.1373,0.1508,0.1377,0.1383,0.1386,0.1668,0.1673,0.1678,0,0,0,0,0,0,0.1264,0.1277,0.1376,0.1325,0.1335,0.132,0.1353,0.1348,0.1366,0.1358,0.1355,0.1342,0.1356,0.1365,0.1447,0.1508,0.1385,0.139,0.1663,0.1669,0.1676,0.1781,0,0,0,0,0,0,0.126,0.1276,0.1321,0.1326,0.1339,0.145,0.1357,0.1352,0.1376,0.1366,0.1378,0.1376,0.1353,0.1439,0.1452,0.1513,0.1394,0.1657,0.1666,0.1673,0.1772,0.179,0.1806,0,0,0,0,0,0.1255,0.1351,0.1324,0.1337,0.1394,0.1454,0.1461,0.1432,0.1381,0.1425,0.142,0.1376,0.15,0.1448,0.1462,0.1526,0.1653,0.1663,0.1673,0.1764,0.1786,0.1805,0,0,0,0,0,0,0.1355,0.1351,0.1321,0.1421,0.1438,0.1439,0.1494,0.1457,0.149,0.148,0.1443,0.1447,0.1535,0.1539,0.1482,0.1638,0.1567,0.1581,0.1632,0.1653,0.167,0.1666,0.1399,0,0,0,0,0,0.1389,0.1437,0.1431,0.152,0.153,0.1511,0.1536,0.1511,0.1528,0.1535,0.1536,0.1554,0.1596,0.1625,0.1665,0.1772,0.1772,0.1823,0.184,0.1854,0.1865,0.1918,0.194,0.1711,0.171,0.171,0,0,0.1459,0.1463,0.1496,0.154,0.155,0.16,0.1517,0.1575,0.1611,0.1544,0.162,0.1621,0.1639,0.1733,0.1774,0.1739,0.1928,0.1866,0.1878,0.1881,0.1931,0.1952,0.1972,0.1717,0.1716,0.1715,0,0,0.1612,0.1621,0.1693,0.1705,0.172,0.1706,0.1724,0.1729,0.1727,0.1802,0.1751,0.1794,0.187,0.1883,0.19,0.2054,0.2013,0.2068,0.2156,0.2209,0.2227,0.2242,0.2294,0.2313,0.2079,0.208,0.208,0,0.1698,0.177,0.1736,0.1795,0.1815,0.1755,0.1827,0.184,0.1869,0.1884,0.1843,0.1933,0.1942,0.2036,0.2073,0.209,0.2107,0.2065,0.2227,0.2242,0.2256,0.2305,0.2325,0.2086,0.2085,0.2084,0.2084,0,0.1873,0.1924,0.1981,0.2006,0.2033,0.2099,0.2074,0.2105,0.2078,0.2068,0.2144,0.2151,0.2189,0.221,0.2186,0.23,0.2277,0.2233,0.216,0.2285,0.233,0.2349,0.2095,0.2093,0.2091,0.2089,0,0,0.2091,0.2094,0.2115,0.2124,0.2136,0.2174,0.2237,0.2271,0.2297,0.2319,0.2368,0.2432,0.2389,0.2408,0.2385,0.2431,0.2548,0.238,0.238,0.2408,0.267,0.2701,0.2723,0.2521,0.2525,0.2528,0.2667,0,0.2239,0.2344,0.2313,0.2419,0.2463,0.2405,0.2459,0.2471,0.2463,0.25,0.2492,0.2535,0.2478,0.2488,0.2532,0.2524,0.2599,0.2514,0.2566,0.2568,0.256,0.2747,0.2782,0.2913,0.2685,0.2688,0.269,0,0.2426,0.2451,0.256,0.2559,0.2577,0.2626,0.2653,0.2689,0.2701,0.2692,0.2712,0.2677,0.2737,0.2666,0.2747,0.269,0.2709,0.2708,0.2713,0.2715,0.2635,0.2751,0.2954,0.2973,0.2718,0.2716,0.2714,0,0.2569,0.2631,0.2702,0.2713,0.2715,0.275,0.2753,0.2761,0.2782,0.2807,0.2819,0.2852,0.2869,0.2894,0.2869,0.282,0.2952,0.288,0.2944,0.2945,0.2973,0.2972,0.3179,0.2991,0.2991,0.2991,0.299,0,0.2736,0.2805,0.2766,0.281,0.2884,0.2848,0.2922,0.2919,0.2925,0.2967,0.292,0.2961,0.2926,0.2963,0.2944,0.3012,0.3021,0.3014,0.3007,0.3016,0.3017,0.3027,0.3016,0.2996,0.2995,0.2994,0.2993,0,0.2909,0.2886,0.296,0.2955,0.2955,0.3009,0.3005,0.3045,0.3032,0.3085,0.3096,0.3077,0.3117,0.3095,0.3138,0.3125,0.3211,0.3194,0.3206,0.3201,0.3265,0.3258,0.3484,0.3511,0.3309,0.3311,0.3312,0,0.3016,0.3066,0.3065,0.3088,0.3093,0.3132,0.3153,0.3119,0.3142,0.3158,0.3195,0.3232,0.3258,0.3326,0.3316,0.3347,0.3329,0.3406,0.3333,0.3339,0.3326,0.3321,0.3325,0.342,0.3422,0.3424,0.3426,0,0.3206,0.3191,0.3222,0.3248,0.3272,0.3292,0.3308,0.333,0.3296,0.3324,0.3364,0.3385,0.3426,0.3461,0.3488,0.3491,0.3452,0.3449,0.3464,0.3473,0.3476,0.3471,0.3243,0.3443,0.3441,0.344,0.3439,0.3439,0.3346,0.3386,0.339,0.3425,0.3432,0.3447,0.3483,0.3473,0.3505,0.3535,0.3514,0.356,0.3567,0.3598,0.3606,0.3641,0.361,0.3634,0.3639,0.3645,0.3652,0.3473,0.3646,0.3646,0.3645,0.3645,0.3644,0,0.3531,0.353,0.3562,0.3583,0.361,0.357,0.3584,0.3609,0.3649,0.3659,0.3685,0.3729,0.3762,0.3754,0.3784,0.3813,0.3796,0.3822,0.3818,0.3818,0.368,0.3661,0.3835,0.3835,0.3835,0.3835,0.3835,0.3835,0.363,0.3694,0.368,0.3746,0.3745,0.3788,0.3799,0.3811,0.3818,0.3868,0.3895,0.3888,0.389,0.3919,0.3947,0.3944,0.3956,0.3987,0.3977,0.3848,0.3829,0.3811,0.3793,0.3991,0.3991,0.4112,0.4113,0.4114]}]]